Regional Weather Roundup
Issued by NWS

Home | Current Version | Previous Version | Text Only | Print | Product List | Glossary On
Versions: 1 2 3 4 5 6 7 8 9 10 11 12 13 14 15 16 17 18 19 20 21 22 23 24 25 26 27 28 29 30 31 32 33 34 35 36 37 38 39 40 41 42 43 44 45 46 47 48 49 50
000
ASUS46 KLOX 251312
RWRCA

SOUTHERN CALIFORNIA WEATHER ROUNDUP
NATIONAL WEATHER SERVICE OXNARD CALIFORNIA
600 AM PDT SAT OCT 25 2014

NOTE: "FAIR" INDICATES FEW OR NO CLOUDS BELOW 12,000 FEET WITH NO
SIGNIFICANT WEATHER AND/OR OBSTRUCTIONS TO VISIBILITY.

  -  STATIONS PRECEEDED BY AN ASTERISK (*) ARE NOT NWS OR FAA
     STATIONS AND ARE NOT SUBJECT TO NWS AND FAA QUALITY CONTROL.

CAZ041-042-087-251400-
LA AND ORANGE COUNTY COASTAL AREAS


CITY           SKY/WX    TMP DP  RH WIND       PRES   REMARKS
L.A. DOWNTOWN  CLOUDY    64  53  67 CALM      29.99R
L.A. AIRPORT   PTCLDY    65  62  90 NW3       29.99R
LONG BEACH     CLOUDY    65  62  90 NW5       29.99R

CITY           SKY/WX    TMP DP  RH WIND       PRES   REMARKS
AVALON           N/A     63 N/A N/A S1          N/A
FULLERTON      CLOUDY    65  56  72 CALM      29.98R
*GETTY CENTER    N/A     68  36  30 W3          N/A
HAWTHORNE      CLOUDY    66  62  87 CALM      29.99S
*LEO CARRILLO    N/A     60  32  35 N7          N/A
*LOS ALAMITOS  CLOUDY    64  63  96 N5        29.99R
*REDONDO BEACH   N/A     64  61  91 CALM      29.98R
SANTA ANA      CLOUDY    67  60  78 CALM      29.99R
STA MONICA APT CLOUDY    61  49  64 CALM      29.99S
*UCLA            N/A     63  45  51 N3        29.97R

$$

CAZ547-548-048-251400-
LA COUNTY VALLEYS AND INLAND EMPIRE


CITY           SKY/WX    TMP DP  RH WIND       PRES   REMARKS
BURBANK        CLEAR     60  46  59 N3        30.00R
VAN NUYS       CLEAR     57  43  59 N3        30.01R

CITY           SKY/WX    TMP DP  RH WIND       PRES   REMARKS
CORONA AIRPORT MOSUNNY   58  47  66 CALM      30.01R
*CHATSWORTH      N/A     58  43  58 CALM      29.97S
CHINO          CLOUDY    61  48  62 CALM      30.01R HAZE
MARCH AFB      MOCLDY    61  37  41 S1        30.03R
*NORTHRIDGE      N/A     57  39  51 SE1         N/A
ONTARIO        MOCLDY    66  42  41 CALM      30.00R
*PASADENA        N/A     66  48  52 CALM        N/A
RIVERSIDE      CLOUDY    64  41  42 N6        30.00S
SAN BERNARDINO NOT AVBL
*SAN RAFAEL HI   N/A     69  40  34 SW7         N/A
*WHITEMAN AP   NOT AVBL
*WHITTIER HILL   N/A     65  50  58 E2          N/A
*WOODLAND HILL   N/A     54  39  58 SE1         N/A

$$

CAZ054-055-251400-
LA AND SAN BERNARDINO COUNTY MOUNTAINS


CITY           SKY/WX    TMP DP  RH WIND       PRES   REMARKS
*BIG BEAR AIRP SUNNY     50  37  62 W5        30.24S
MT WILSON NWS    N/A    N/A N/A N/A MISG        N/A
SANDBERG       PTCLDY    60  19  20 S15G24    30.12S

$$

CAZ028-029-059-060-099-251400-
ANTELOPE VALLEY AND SURROUNDING AREAS


CITY           SKY/WX    TMP DP  RH WIND       PRES   REMARKS
LANCASTER      CLEAR     52  25  35 CALM      30.05R
PALMDALE       CLEAR     62  35  36 CALM      30.06R
*POPPY PARK      N/A     56  29  35 W3          N/A

CITY           SKY/WX    TMP DP  RH WIND       PRES   REMARKS
29 PALMS       CLEAR     62  38  40 NW5       30.09S
BARSTOW/DAGGET CLEAR     66  36  32 N9        30.02R
BISHOP         PTCLDY    64  32  30 S10G29    29.99R
CHINA LAKE     CLEAR     64  33  31 S7        30.00S
EDWARDS AFB    PTCLDY    51  28  42 SE5       30.03R
MOJAVE         FAIR      57  25  28 W9        30.06S
NEEDLES        CLEAR     68  40  35 NW6       29.97R
VICTORVILLE    CLEAR     57  36  44 CALM      30.08R

$$

CAZ039-040-251400-
VENTURA AND SANTA BARBARA COUNTY COAST


CITY           SKY/WX    TMP DP  RH WIND       PRES   REMARKS
CAMARILLO      CLOUDY    59  56  89 NE7       30.00R FOG
OXNARD AIRPORT PTCLDY    55  47  74 E5        30.00S
*POINT MUGU    MOCLDY    60  55  83 N6        30.01R
SBA APT/GOLETA CLEAR     52  49  89 W6        30.00R
*SANTA BARBARA   N/A     58  53  83 CALM      30.07S
*VENTURA         N/A     54  47  78 CALM      30.05S

$$

CAZ044-045-251400-
VENTURA COUNTY VALLEYS


CITY           SKY/WX    TMP DP  RH WIND       PRES   REMARKS
*SIMI VALLEY     N/A     53  41  64 CALM      29.98R
*OJAI            N/A     43  35  72 CALM      29.98R
*FILLMORE        N/A     49  44  82 CALM      29.92R

$$

CAZ053-251400-
VENTURA COUNTY MOUNTAINS


CITY           SKY/WX    TMP DP  RH WIND       PRES   REMARKS
*LOCKWOOD VLY    N/A     39  10  30 MISG        N/A
*ROSE VALLEY     N/A     34  23  64 MISG        N/A

$$

CAZ034-035-036-251400-
CENTRAL COAST AND SANTA YNEZ VALLEY


CITY           SKY/WX    TMP DP  RH WIND       PRES   REMARKS
SAN LUIS OBISP CLEAR     51  49  92 SE3       30.03S
SANTA MARIA    CLEAR     55  51  86 SE6       30.04R

CITY           SKY/WX    TMP DP  RH WIND       PRES   REMARKS
*CAL POLY SLO    N/A     50  50 100 CALM        N/A
*LOMPOC        CLEAR     52  46  82 E7        30.04R
*PISMO BEACH     N/A     52  50  94 NE5       30.03S
*SANTA YNEZ    FAIR      52  50  93 NE6       30.05S

$$

CAZ037-038-051-251400-
SAN LUIS OBISPO COUNTY INTERIOR AND CUYAMA VALLEY


CITY           SKY/WX    TMP DP  RH WIND       PRES   REMARKS
*CUYAMA          N/A     48  44  86 SE2       29.97R
PASO ROBLES    CLEAR     47  43  86 SE3       30.03R

$$

CAZ032-033-061-251400-
SOUTHERN DESERTS


CITY           SKY/WX    TMP DP  RH WIND       PRES   REMARKS
BLYTHE         CLEAR     67  43  41 W3        29.94R
IMPERIAL       MOCLDY    70  49  47 S5        29.91R
PALM SPRINGS   CLEAR     72  47  40 CALM      29.95S
THERMAL        CLEAR     63  47  55 N6        29.89S

$$

ELSEWHERE ACROSS THE WESTERN UNITED STATES AND MEXICO


CITY           SKY/WX    TMP DP  RH WIND       PRES   REMARKS
DENVER, CO     CLEAR     52  22  30 SW8       30.23R
GRAND CANYON,  PTCLDY    30  23  75 CALM      30.34R SMOKE
HONOLULU, HI   PTCLDY    77  70  78 NE5       29.99F
KAHULUI, MAUI  CLEAR     68  63  83 S3        30.00F
LAKE TAHOE, CA CLEAR     52  23  32 S18G25    29.99S
LAS VEGAS, NV  PTCLDY    65  39  38 SW3       29.98S
MAMMOTH LAKES, FAIR      43  18  36 N6        30.12S
MEXICO CITY, M CLOUDY    55  50  82 NE6       30.42R
PHOENIX, AZ    CLEAR     72  50  45 SE6       29.99R
PORTLAND, OR   CLOUDY    55  49  80 SW15G24   29.60R
RENO, NV       PTCLDY    63  26  24 SW30G37   29.90F
SALT LAKE CITY CLEAR     54  30  40 SE10      30.07R
SAN DIEGO, CA  MOCLDY    67  62  84 CALM      29.99S
SAN FRANCISCO, LGT RAIN  64  60  87 SW14G24   29.94R FOG
SAN JOSE, CA   LGT RAIN  62  56  80 SE13      29.94R
SEATTLE, WA    PTCLDY    47  45  93 N3        29.48F
TIJUANA, MEX   CLEAR     64  59  82 CALM      30.01S

$$

STATION/POSITION TIME  TEMP    WIND        PRES    VSBY  WAVE
                       AIR SEA DIR/SP/G                  HT/PER
                 (UTC) (F)     (DEG/KT/KT) (MB)    (MI)  (FT/S)
POINT ARGUELLO B NOT AVBL
WEST SANTA BARBA 1300   63 63  300/ 10/ 12 1015.7R         6/12
POINT CONCEPTION NOT AVBL
EAST SANTA BARBA 1300   64 69  310/  6/  8 1016.1R
SANTA MONICA BAY 1300   65 68  320/ 10/ 14 1015.6R         3/ 9



USA.gov is the U.S. government's official web portal to all federal, state and local government web resources and services.